| time (UTC) | temp F | wind direction | speed MPH | gust MPH | rain 1hr in | rain 24hr in | rain mn in | humidity % | barometer mb |
| 20260902072102 | 85 | 188 | 5.0 | 8.0 | 0.00 | 0.00 | 0.00 | 50 | 1055.2 |
| 20260902070602 | 85 | 175 | 6.0 | 7.0 | 0.00 | 0.00 | 0.00 | 49 | 1055.2 |
| 20260902065102 | 85 | 157 | 4.0 | 6.0 | 0.00 | 0.00 | 0.00 | 49 | 1055.2 |
| 20260902062102 | 86 | 173 | 3.0 | 6.0 | 0.00 | 0.00 | 0.00 | 48 | 1055.2 |
| 20260902060602 | 86 | 177 | 6.0 | 8.0 | 0.00 | 0.00 | 0.00 | 47 | 1055.2 |
| 20260902055602 | 86 | 176 | 4.0 | 8.0 | 0.00 | 0.00 | 0.00 | 47 | 1055.2 |
| 20260902052602 | 87 | 205 | 4.0 | 7.0 | 0.00 | 0.00 | 0.00 | 46 | 1054.9 |
| 20260902051601 | 88 | 102 | 3.0 | 7.0 | 0.00 | 0.00 | 0.00 | 45 | 1054.9 |
| 20260902045602 | 88 | 196 | 4.0 | 8.0 | 0.00 | 0.00 | 0.00 | 44 | 1054.9 |
| 20260902044103 | 88 | 118 | 6.0 | 8.0 | 0.00 | 0.00 | 0.00 | 44 | 1054.9 |
| 20260902042602 | 88 | 251 | 7.0 | 10.0 | 0.00 | 0.00 | 0.00 | 43 | 1055.2 |
| 20260902041102 | 88 | 163 | 7.0 | 8.0 | 0.00 | 0.00 | 0.00 | 44 | 1055.2 |
| 20260902035602 | 88 | 142 | 3.0 | 6.0 | 0.00 | 0.00 | 0.00 | 44 | 1055.2 |
| 20260902032602 | 89 | 170 | 4.0 | 7.0 | 0.00 | 0.00 | 0.00 | 42 | 1054.9 |
| 20260902025603 | 90 | 182 | 5.0 | 5.0 | 0.00 | 0.00 | 0.00 | 41 | 1054.5 |
| 20260902024102 | 91 | 156 | 3.0 | 7.0 | 0.00 | 0.00 | 0.00 | 40 | 1054.2 |
| 20260902022601 | 91 | 189 | 3.0 | 6.0 | 0.00 | 0.00 | 0.00 | 40 | 1053.8 |
| 20260902015602 | 92 | 159 | 5.0 | 6.0 | 0.00 | 0.00 | 0.00 | 38 | 1053.5 |
| 20260902012602 | 94 | 150 | 2.0 | 6.0 | 0.00 | 0.00 | 0.00 | 35 | 1053.5 |
| 20260902011102 | 95 | 145 | 3.0 | 7.0 | 0.00 | 0.00 | 0.00 | 33 | 1053.2 |
| 20260902005602 | 96 | 198 | 6.0 | 8.0 | 0.00 | 0.00 | 0.00 | 31 | 1053.2 |
| 20260902004102 | 97 | 127 | 4.0 | 7.0 | 0.00 | 0.00 | 0.00 | 30 | 1053.2 |
| 20260902002602 | 98 | 184 | 2.0 | 8.0 | 0.00 | 0.00 | 0.00 | 30 | 1053.2 |
| 20260901235602 | 99 | 187 | 7.0 | 9.0 | 0.00 | 0.00 | 0.00 | 29 | 1053.2 |
| 20260901234102 | 99 | 201 | 6.0 | 10.0 | 0.00 | 0.00 | 0.00 | 27 | 1053.5 |
| 20260901232602 | 101 | 209 | 10.0 | 10.0 | 0.00 | 0.00 | 0.00 | 27 | 1053.5 |
| 20260901225602 | 101 | 192 | 7.0 | 9.0 | 0.00 | 0.00 | 0.00 | 27 | 1053.5 |
| 20260901224102 | 101 | 138 | 6.0 | 9.0 | 0.00 | 0.00 | 0.00 | 27 | 1053.5 |
| 20260901222602 | 102 | 139 | 5.0 | 9.0 | 0.00 | 0.00 | 0.00 | 26 | 1053.5 |
| 20260901221601 | 102 | 178 | 2.0 | 7.0 | 0.00 | 0.00 | 0.00 | 26 | 1053.5 |
| 20260901214602 | 101 | 138 | 5.0 | 15.0 | 0.00 | 0.00 | 0.00 | 26 | 1053.8 |
| 20260901213102 | 101 | 190 | 6.0 | 10.0 | 0.00 | 0.00 | 0.00 | 26 | 1054.2 |
| 20260901211602 | 101 | 169 | 8.0 | 8.0 | 0.00 | 0.00 | 0.00 | 27 | 1054.2 |
| 20260901203102 | 105 | 223 | 4.0 | 9.0 | 0.00 | 0.00 | 0.00 | 24 | 1054.9 |
| 20260901201602 | 104 | 184 | 10.0 | 10.0 | 0.00 | 0.00 | 0.00 | 24 | 1054.9 |
| 20260901194602 | 104 | 206 | 8.0 | 10.0 | 0.00 | 0.00 | 0.00 | 24 | 1055.2 |
| 20260901193602 | 102 | 229 | 7.0 | 9.0 | 0.00 | 0.00 | 0.00 | 25 | 1055.5 |
| 20260901192102 | 102 | 103 | 5.0 | 8.0 | 0.00 | 0.00 | 0.00 | 25 | 1055.5 |
| 20260901190603 | 103 | 166 | 7.0 | 10.0 | 0.00 | 0.00 | 0.00 | 24 | 1055.9 |
| 20260901185103 | 102 | 231 | 3.0 | 8.0 | 0.00 | 0.00 | 0.00 | 26 | 1055.9 |
| 20260901182102 | 101 | 109 | 4.0 | 7.0 | 0.00 | 0.00 | 0.00 | 27 | 1056.6 |
| 20260901180602 | 101 | 231 | 8.0 | 11.0 | 0.00 | 0.00 | 0.00 | 27 | 1056.6 |
| 20260901175102 | 103 | 170 | 6.0 | 9.0 | 0.00 | 0.00 | 0.00 | 26 | 1056.6 |
| 20260901173602 | 102 | 133 | 3.0 | 9.0 | 0.00 | 0.00 | 0.00 | 28 | 1056.9 |
| 20260901172102 | 102 | 233 | 5.0 | 8.0 | 0.00 | 0.00 | 0.00 | 27 | 1057.2 |
| 20260901170602 | 101 | 194 | 4.0 | 6.0 | 0.00 | 0.00 | 0.00 | 29 | 1057.2 |
| 20260901163602 | 99 | 210 | 4.0 | 9.0 | 0.00 | 0.00 | 0.00 | 31 | 1057.6 |
| 20260901162102 | 99 | 242 | 5.0 | 9.0 | 0.00 | 0.00 | 0.00 | 33 | 1057.6 |
| 20260901161101 | 98 | 243 | 3.0 | 9.0 | 0.00 | 0.00 | 0.00 | 32 | 1057.6 |
| 20260901154102 | 96 | 14 | 4.0 | 10.0 | 0.00 | 0.00 | 0.00 | 35 | 1057.2 |
| 20260901151102 | 94 | 186 | 5.0 | 7.0 | 0.00 | 0.00 | 0.00 | 37 | 1057.6 |
| 20260901145602 | 92 | 168 | 5.0 | 10.0 | 0.00 | 0.00 | 0.00 | 38 | 1057.6 |
| 20260901144102 | 91 | 178 | 4.0 | 10.0 | 0.00 | 0.00 | 0.00 | 41 | 1057.6 |
| 20260901135603 | 86 | 168 | 7.0 | 9.0 | 0.00 | 0.00 | 0.00 | 46 | 1057.6 |
| 20260901134602 | 86 | 152 | 6.0 | 8.0 | 0.00 | 0.00 | 0.00 | 48 | 1057.6 |
| 20260901125101 | 82 | 187 | 5.0 | 10.0 | 0.00 | 0.00 | 0.00 | 53 | 1057.2 |
| 20260901123602 | 81 | 185 | 6.0 | 10.0 | 0.00 | 0.00 | 0.00 | 54 | 1056.9 |
| 20260901122102 | 80 | 129 | 3.0 | 8.0 | 0.00 | 0.00 | 0.00 | 54 | 1056.9 |
| 20260901120603 | 80 | 185 | 7.0 | 9.0 | 0.00 | 0.00 | 0.00 | 53 | 1056.6 |
| 20260901115102 | 81 | 167 | 4.0 | 6.0 | 0.00 | 0.00 | 0.00 | 53 | 1056.6 |
| 20260901113602 | 81 | 202 | 7.0 | 9.0 | 0.00 | 0.00 | 0.00 | 52 | 1056.6 |
| 20260901112602 | 82 | 176 | 4.0 | 8.0 | 0.00 | 0.00 | 0.00 | 51 | 1056.6 |
| 20260901111102 | 82 | 181 | 9.0 | 13.0 | 0.00 | 0.00 | 0.00 | 51 | 1056.6 |
| 20260901105602 | 81 | 204 | 6.0 | 9.0 | 0.00 | 0.00 | 0.00 | 51 | 1056.2 |
| 20260901104102 | 80 | 181 | 5.0 | 7.0 | 0.00 | 0.00 | 0.00 | 51 | 1056.2 |
| 20260901102602 | 81 | 203 | 4.0 | 8.0 | 0.00 | 0.00 | 0.00 | 50 | 1056.2 |
| 20260901101103 | 81 | 158 | 4.0 | 8.0 | 0.00 | 0.00 | 0.00 | 49 | 1056.2 |
| 20260901095602 | 81 | 182 | 4.0 | 7.0 | 0.00 | 0.00 | 0.00 | 48 | 1056.2 |
| 20260901094102 | 82 | 192 | 4.0 | 7.0 | 0.00 | 0.00 | 0.00 | 48 | 1056.2 |
| 20260901092602 | 81 | 191 | 4.0 | 8.0 | 0.00 | 0.00 | 0.00 | 47 | 1056.2 |
| 20260901091102 | 81 | 184 | 4.0 | 8.0 | 0.00 | 0.00 | 0.00 | 47 | 1055.9 |
| 20260901085602 | 80 | 165 | 3.0 | 5.0 | 0.00 | 0.00 | 0.00 | 49 | 1055.9 |
| 20260901084602 | 80 | 160 | 3.0 | 4.0 | 0.00 | 0.00 | 0.00 | 49 | 1055.9 |
| 20260901081602 | 80 | 159 | 2.0 | 3.0 | 0.00 | 0.00 | 0.00 | 48 | 1055.9 |
| 20260901074602 | 80 | 161 | 0.0 | 3.0 | 0.00 | 0.00 | 0.00 | 49 | 1055.9 |